User: anonymous
Location: Waldport
(44.4270°N, 124.0680°W)
Time: 08:16:38
(UTC-07:00)
Language:

Cosmos 1570 Rocket - Orbit

View from above orbital plane
View from above orbital plane
View from above satellite
View from above satellite

Ground track
Ground track

The orbit data is extracted from the following two-line orbital elements,

1 15032U 84056B   14201.64375390 -.00000027  00000-0 -27671-6 0  4411
2 15032 074.0696 218.2069 0018826 288.3474 205.7190 14.34388864574553
Epoch (UTC): 20 July 2014 15:27:00
Eccentricity: 0.0018826
inclination: 74.0696°
perigee height: 763 km
apogee height: 790 km
right ascension of ascending node: 218.2069°
argument of perigee: 288.3474°
revolutions per day: 14.34388864
mean anomaly at epoch: 205.7190°
orbit number at epoch: 57455

The dashed part of the orbit path shows where the satellite is in the earth's shadow,  

DLR